FLOCK 4S-37 (47522 NORAD) Tracking and Keplerian Element Data

This shows tracking and keplerian element data for the satellite.

Feedback or suggestion? Click here.




ElementValue
Catalog47522
NameFLOCK 4S-37
Epoch Orbit1295
Epoch Day101.9088891
Epoch Year2021
RAAN164.2639
Inclination97.5022
Eccentricity0.0007897
Argument of Perigee353.7599
Mean Anonmoly6.3532
Mean Motion15.11940883
Decay Rate2.125E-05
L11 47522U 21006DN 21101.90888910 .00002125 00000-0 12766-3 0 9992
L22 47522 97.5022 164.2639 0007897 353.7599 6.3532 15.11940883 12956

Live tracking and technical data element details for FLOCK 4S-37 (NORAD 47522). FLOCK 4S-37 can be tracked NOW for your location showing map with azimuth and elevation plus other details from your city location.

Track the satellite on the map from your city or location and see movement details for azimuth, elevation, latitude, longitude, range, height, and movement on the map or in text.







IsCatalogInMostPopularTable: catalog: 47522, numindb: 14
Update: records affected: 1



GetName: 47522 FLOCK 4S-37

Hit Count: updated at: Tue, 13 Apr 2021 04:57:46 GMT